| time (UTC) | temp F | wind direction | speed MPH | gust MPH | rain 1hr in | rain 24hr in | rain mn in | humidity % | barometer mb |
| 20260510130040 | 57 | 182 | 1.0 | 2.0 | 0.00 | 0.25 | 0.01 | 91 | 1011.8 |
| 20260510124537 | 56 | 321 | 0.0 | 4.0 | 0.00 | 0.25 | 0.01 | 91 | 1011.8 |
| 20260510123036 | 57 | 165 | 0.0 | 5.0 | 0.00 | 0.25 | 0.01 | 91 | 1011.5 |
| 20260510121533 | 56 | 214 | 5.0 | 10.0 | 0.00 | 0.25 | 0.01 | 92 | 1010.8 |
| 20260510120030 | 55 | 225 | 3.0 | 12.0 | 0.00 | 0.25 | 0.01 | 93 | 1011.3 |
| 20260510114527 | 55 | 163 | 4.0 | 8.0 | 0.00 | 0.26 | 0.01 | 94 | 1011.4 |
| 20260510113023 | 54 | 167 | 1.0 | 7.0 | 0.00 | 0.26 | 0.01 | 94 | 1011.6 |
| 20260510111522 | 54 | 298 | 1.0 | 4.0 | 0.00 | 0.26 | 0.01 | 94 | 1011.9 |
| 20260510110031 | 54 | 231 | 1.0 | 4.0 | 0.00 | 0.26 | 0.01 | 94 | 1011.9 |
| 20260510104517 | 53 | 192 | 0.0 | 2.0 | 0.00 | 0.26 | 0.01 | 94 | 1011.6 |
| 20260510103014 | 53 | 192 | 0.0 | 0.0 | 0.00 | 0.26 | 0.01 | 94 | 1011.8 |
| 20260510101513 | 53 | 192 | 0.0 | 2.0 | 0.00 | 0.26 | 0.01 | 94 | 1011.8 |
| 20260510100015 | 53 | 145 | 0.0 | 2.0 | 0.00 | 0.26 | 0.01 | 94 | 1011.7 |
| 20260510094520 | 53 | 196 | 1.0 | 3.0 | 0.00 | 0.26 | 0.01 | 94 | 1011.3 |
| 20260510093012 | 53 | 192 | 0.0 | 4.0 | 0.00 | 0.26 | 0.01 | 94 | 1011.2 |
| 20260510091516 | 53 | 210 | 0.0 | 3.0 | 0.00 | 0.26 | 0.01 | 94 | 1010.8 |
| 20260510090010 | 53 | 150 | 1.0 | 4.0 | 0.00 | 0.26 | 0.01 | 94 | 1010.8 |
| 20260510084505 | 53 | 312 | 0.0 | 3.0 | 0.00 | 0.26 | 0.01 | 94 | 1010.9 |
| 20260510083004 | 53 | 252 | 0.0 | 1.0 | 0.00 | 0.26 | 0.01 | 94 | 1011.0 |
| 20260510081504 | 53 | 255 | 0.0 | 2.0 | 0.00 | 0.26 | 0.01 | 94 | 1011.0 |
| 20260510080001 | 53 | 245 | 0.0 | 4.0 | 0.00 | 0.26 | 0.01 | 94 | 1011.0 |
| 20260510074601 | 53 | 175 | 0.0 | 5.0 | 0.00 | 0.26 | 0.01 | 94 | 1010.7 |
| 20260510073100 | 53 | 216 | 0.0 | 3.0 | 0.00 | 0.26 | 0.01 | 94 | 1010.6 |
| 20260510071558 | 53 | 227 | 0.0 | 2.0 | 0.00 | 0.26 | 0.01 | 94 | 1010.5 |
| 20260510070057 | 53 | 150 | 0.0 | 2.0 | 0.00 | 0.26 | 0.01 | 94 | 1010.4 |
| 20260510064554 | 53 | 184 | 0.0 | 4.0 | 0.00 | 0.26 | 0.01 | 93 | 1010.4 |
| 20260510063052 | 53 | 130 | 0.0 | 1.0 | 0.00 | 0.26 | 0.01 | 93 | 1010.5 |
| 20260510061553 | 52 | 130 | 0.0 | 2.0 | 0.00 | 0.26 | 0.01 | 93 | 1010.4 |
| 20260510060052 | 52 | 132 | 0.0 | 2.0 | 0.00 | 0.26 | 0.01 | 93 | 1010.4 |
| 20260510054548 | 52 | 131 | 0.0 | 3.0 | 0.00 | 0.26 | 0.01 | 93 | 1010.2 |
| 20260510053058 | 52 | 132 | 0.0 | 0.0 | 0.00 | 0.26 | 0.01 | 93 | 1010.5 |
| 20260510051549 | 52 | 132 | 0.0 | 0.0 | 0.00 | 0.26 | 0.01 | 93 | 1010.7 |
| 20260510050044 | 52 | 132 | 0.0 | 1.0 | 0.01 | 0.26 | 0.01 | 93 | 1010.6 |
| 20260510044542 | 52 | 132 | 0.0 | 2.0 | 0.01 | 0.26 | 0.01 | 93 | 1010.6 |
| 20260510043052 | 52 | 136 | 0.0 | 2.0 | 0.01 | 0.26 | 0.01 | 93 | 1010.5 |
| 20260510041539 | 52 | 146 | 0.0 | 2.0 | 0.01 | 0.26 | 0.01 | 93 | 1010.7 |
| 20260510040041 | 52 | 146 | 0.0 | 0.0 | 0.00 | 0.25 | 0.00 | 92 | 1010.7 |
| 20260510034539 | 52 | 146 | 0.0 | 2.0 | 0.00 | 0.25 | 0.25 | 92 | 1010.7 |
| 20260510033035 | 52 | 146 | 0.0 | 0.0 | 0.00 | 0.25 | 0.25 | 92 | 1010.8 |
| 20260510031537 | 52 | 146 | 0.0 | 1.0 | 0.01 | 0.25 | 0.25 | 92 | 1010.8 |
| 20260510030035 | 52 | 146 | 0.0 | 4.0 | 0.01 | 0.25 | 0.25 | 92 | 1011.3 |
| 20260510024535 | 52 | 158 | 1.0 | 5.0 | 0.01 | 0.25 | 0.25 | 92 | 1011.6 |
| 20260510023033 | 52 | 151 | 1.0 | 5.0 | 0.01 | 0.25 | 0.25 | 92 | 1011.9 |
| 20260510021541 | 52 | 145 | 0.0 | 3.0 | 0.00 | 0.24 | 0.24 | 92 | 1011.9 |
| 20260510020033 | 53 | 142 | 0.0 | 5.0 | 0.00 | 0.24 | 0.24 | 92 | 1012.0 |
| 20260510014534 | 53 | 156 | 0.0 | 2.0 | 0.00 | 0.24 | 0.24 | 92 | 1012.2 |
| 20260510013033 | 53 | 146 | 1.0 | 5.0 | 0.00 | 0.24 | 0.24 | 92 | 1012.3 |
| 20260510011540 | 53 | 144 | 0.0 | 6.0 | 0.00 | 0.24 | 0.24 | 92 | 1012.3 |
| 20260510010030 | 54 | 186 | 0.0 | 4.0 | 0.00 | 0.24 | 0.24 | 92 | 1012.5 |
| 20260510004532 | 54 | 167 | 0.0 | 3.0 | 0.01 | 0.24 | 0.24 | 92 | 1012.2 |
| 20260510003029 | 54 | 154 | 0.0 | 5.0 | 0.01 | 0.24 | 0.24 | 92 | 1012.3 |
| 20260510001528 | 54 | 148 | 1.0 | 7.0 | 0.01 | 0.24 | 0.24 | 92 | 1012.2 |
| 20260510000037 | 54 | 148 | 1.0 | 4.0 | 0.02 | 0.24 | 0.24 | 92 | 1012.3 |
| 20260509234527 | 55 | 120 | 1.0 | 5.0 | 0.05 | 0.23 | 0.23 | 92 | 1012.2 |
| 20260509233026 | 55 | 202 | 0.0 | 7.0 | 0.11 | 0.23 | 0.23 | 92 | 1012.2 |
| 20260509231527 | 55 | 173 | 0.0 | 9.0 | 0.14 | 0.23 | 0.23 | 92 | 1012.1 |
| 20260509230026 | 55 | 153 | 1.0 | 8.0 | 0.16 | 0.22 | 0.22 | 92 | 1011.8 |
| 20260509224525 | 55 | 207 | 2.0 | 7.0 | 0.14 | 0.18 | 0.18 | 91 | 1011.9 |
| 20260509223023 | 55 | 190 | 1.0 | 7.0 | 0.09 | 0.12 | 0.12 | 91 | 1011.7 |
| 20260509221523 | 55 | 207 | 2.0 | 8.0 | 0.07 | 0.09 | 0.09 | 90 | 1011.5 |
| 20260509220023 | 56 | 164 | 1.0 | 10.0 | 0.05 | 0.06 | 0.06 | 90 | 1011.5 |
| 20260509214521 | 56 | 192 | 2.0 | 10.0 | 0.03 | 0.04 | 0.04 | 89 | 1011.4 |
| 20260509213027 | 56 | 163 | 2.0 | 10.0 | 0.02 | 0.03 | 0.03 | 87 | 1011.3 |
| 20260509211520 | 58 | 200 | 5.0 | 11.0 | 0.01 | 0.02 | 0.02 | 80 | 1011.1 |
| 20260509210019 | 59 | 184 | 3.0 | 11.0 | 0.00 | 0.01 | 0.01 | 77 | 1010.6 |
| 20260509204518 | 60 | 194 | 4.0 | 9.0 | 0.00 | 0.01 | 0.01 | 77 | 1011.1 |
| 20260509203017 | 60 | 134 | 3.0 | 10.0 | 0.00 | 0.01 | 0.01 | 76 | 1010.9 |
| 20260509201517 | 61 | 248 | 0.0 | 5.0 | 0.00 | 0.01 | 0.01 | 69 | 1010.8 |
| 20260509200017 | 61 | 158 | 1.0 | 8.0 | 0.00 | 0.01 | 0.01 | 69 | 1010.8 |
| 20260509194516 | 62 | 161 | 4.0 | 16.0 | 0.00 | 0.01 | 0.01 | 66 | 1010.9 |
| 20260509193025 | 62 | 146 | 2.0 | 9.0 | 0.00 | 0.01 | 0.01 | 69 | 1010.8 |
| 20260509191512 | 62 | 213 | 0.0 | 10.0 | 0.00 | 0.01 | 0.01 | 69 | 1010.7 |
| 20260509190012 | 62 | 177 | 2.0 | 5.0 | 0.00 | 0.01 | 0.01 | 70 | 1010.8 |
| 20260509184528 | 62 | 268 | 1.0 | 8.0 | 0.00 | 0.01 | 0.01 | 70 | 1011.1 |
| 20260509183008 | 61 | 187 | 1.0 | 7.0 | 0.00 | 0.01 | 0.01 | 73 | 1011.1 |
| 20260509181508 | 60 | 153 | 2.0 | 10.0 | 0.00 | 0.01 | 0.01 | 78 | 1010.9 |
| 20260509180004 | 59 | 159 | 1.0 | 5.0 | 0.00 | 0.01 | 0.01 | 77 | 1011.6 |
| 20260509174503 | 60 | 169 | 1.0 | 9.0 | 0.00 | 0.01 | 0.01 | 72 | 1011.9 |
| 20260509173002 | 61 | 164 | 3.0 | 10.0 | 0.00 | 0.01 | 0.01 | 68 | 1012.0 |
| 20260509171500 | 61 | 198 | 3.0 | 7.0 | 0.00 | 0.01 | 0.01 | 67 | 1011.8 |
| 20260509170107 | 61 | 155 | 0.0 | 5.0 | 0.00 | 0.01 | 0.01 | 70 | 1011.9 |
| 20260509164559 | 60 | 249 | 0.0 | 7.0 | 0.00 | 0.01 | 0.01 | 70 | 1011.9 |
| 20260509163057 | 60 | 167 | 0.0 | 7.0 | 0.00 | 0.01 | 0.01 | 71 | 1011.9 |
| 20260509161552 | 59 | 181 | 2.0 | 8.0 | 0.00 | 0.01 | 0.01 | 71 | 1012.2 |
| 20260509160051 | 59 | 183 | 1.0 | 6.0 | 0.00 | 0.01 | 0.01 | 71 | 1012.3 |
| 20260509154549 | 59 | 180 | 0.0 | 8.0 | 0.00 | 0.01 | 0.01 | 72 | 1012.6 |
| 20260509153055 | 58 | 144 | 1.0 | 7.0 | 0.00 | 0.01 | 0.01 | 73 | 1012.8 |
| 20260509151540 | 56 | 158 | 2.0 | 7.0 | 0.00 | 0.01 | 0.01 | 75 | 1012.8 |
| 20260509150037 | 55 | 178 | 0.0 | 9.0 | 0.00 | 0.01 | 0.01 | 75 | 1012.7 |
| 20260509144534 | 54 | 131 | 1.0 | 5.0 | 0.00 | 0.01 | 0.01 | 76 | 1013.0 |
| 20260509143031 | 53 | 159 | 2.0 | 5.0 | 0.00 | 0.01 | 0.01 | 79 | 1013.3 |
| 20260509141527 | 52 | 139 | 0.0 | 4.0 | 0.00 | 0.01 | 0.01 | 83 | 1013.4 |
| 20260509140023 | 51 | 150 | 2.0 | 6.0 | 0.00 | 0.01 | 0.01 | 88 | 1013.7 |
| 20260509134519 | 50 | 195 | 1.0 | 5.0 | 0.00 | 0.01 | 0.01 | 91 | 1013.9 |
| 20260509133015 | 48 | 150 | 0.0 | 1.0 | 0.00 | 0.01 | 0.01 | 92 | 1013.9 |
| 20260509131513 | 46 | 155 | 0.0 | 2.0 | 0.00 | 0.01 | 0.01 | 91 | 1014.0 |